Location: ??
(35.4824°N, 139.4679°E)
Time: 21:42:59
(UTC+00:00)

Cosmos 1980 Rocket - Pass Details

Date: 29 October 2020
Orbit: 831 x 848 km, 71.0° (Epoch: 24 November)

Event Time Altitude Azimuth Distance (km) Brightness Sun altitude
Exits shadow 19:38:55 - 337° (NNW) 3,154 4.9 -17.4°
Reaches altitude 10° 19:40:47 10° 336° (NNW) 2,442 4.3 -17.0°
Maximum altitude 19:46:22 81° 251° (WSW) 847 2.1 -15.9°
Drops below altitude 10° 19:51:58 10° 164° (SSE) 2,435 4.9 -14.8°
Sets 19:54:23 0° 163° (SSE) 3,368 5.7 -14.3°
